Location: Fisheating Creek Campgrounds
(26.9333°N, 81.3167°W)
Time: 16:52:50

Cosmos 2221 Rocket - Visible Passes

Search period start: 25 October 2016 00:00
Search period end: 04 November 2016 00:00
Orbit: 622 x 647 km, 82.5° (Epoch: 25 October)

Date Brightness Start Highest point End Pass type
(mag) Time Alt. Az. Time Alt. Az. Time Alt. Az.
01 Nov 6.4 21:02:46 10° SSW 21:02:51 10° SSW 21:02:51 10° SSW visible
02 Nov 5.6 19:48:13 10° SE 19:48:55 13° SE 19:48:55 13° SE visible
02 Nov 6.5 21:25:57 10° SW 21:26:30 12° SW 21:26:30 12° SW visible
03 Nov 4.1 20:09:16 10° SSE 20:12:39 41° SE 20:12:39 41° SE visible
